Regional Weather Roundup
Issued by NWS Charleston, SC

Current Version | Previous Version | Graphics & Text | Print | Product List | Glossary On
Versions: 1 2 3 4 5 6 7 8 9 10 11 12 13 14 15 16 17 18 19 20 21 22 23 24 25 26 27 28 29 30 31 32 33 34 35 36 37 38 39 40 41 42 43 44 45 46 47 48 49 50
000
ASUS42 KCHS 042213
RWRCHS

REGIONAL WEATHER ROUNDUP
NATIONAL WEATHER SERVICE CHARLESTON SC
600 PM EDT WED MAY 04 2016

NOTE: "FAIR" INDICATES FEW OR NO CLOUDS BELOW 12,000 FEET WITH NO
SIGNIFICANT WEATHER AND/OR OBSTRUCTIONS TO VISIBILITY.

NOT ALL STATIONS ARE QUALITY CONTROLLED. USE DATA WITH CAUTION...
ESPECIALLY DEWPOINT OBSERVATIONS.

SCZ027-030-031-034>040-042>050-042300-
...SOUTHEAST SOUTH CAROLINA...

CITY           SKY/WX    TMP DP  RH WIND       PRES   REMARKS
N CHARLESTON   MOSUNNY   79  45  29 W14G20    29.62R
WATERFRONT PRK   N/A     79  50  36 W8        29.59S
MOUNT PLEASANT FAIR      81  46  30 W10       29.61S
JOHNS ISLAND   FAIR      79  50  36 SW8G15    29.62S
PINOPOLIS        N/A     81  52  36 W12       29.53S
MONCKS CORNER  FAIR      77  43  29 W7        29.61S
SUMMERVILLE    FAIR      79  46  31 W9        29.64R
BEAUFORT MCAS  MOSUNNY   78  46  32 W13       29.64S
BEAUFORT ARPT  FAIR      79  43  27 W12       29.64S
HILTON HEAD IS MOSUNNY   79  46  31 W12       29.66S
WALTERBORO     CLEAR     79  41  25 W13G20    29.64S
ALLENDALE      FAIR      75  43  31 VRB7G14   29.65S

...SOUTHERN MIDLANDS AND PEE DEE...

CITY           SKY/WX    TMP DP  RH WIND       PRES   REMARKS
GEORGETOWN     FAIR      79  46  31 W10G17    29.61R
KINGSTREE      FAIR      77  45  31 W10G17    29.60F
ORANGEBURG     SUNNY     76  39  26 W13       29.64S
BARNWELL       FAIR      79  46  31 W9G16     29.66S
AIKEN          FAIR      72  43  35 W9G16     29.70R
MANNING        FAIR      75  45  33 NW7       29.61S
COLUMBIA       MOSUNNY   75  41  29 W8G23     29.63S
SUMTER         MOSUNNY   75  45  34 W10       29.60F
FLORENCE       MOSUNNY   76  50  40 W8        29.60S
MYRTLE BEACH   MOSUNNY   81  52  36 W8        29.61S
N MYRTLE BEACH CLOUDY    77  54  44 W8        29.58S

$$

GAZ063-065-086>088-099>101-113>116-118-119-134>141-150-042300-
...SOUTHEAST GEORGIA...

CITY           SKY/WX    TMP DP  RH WIND       PRES   REMARKS
SAVANNAH ARPT  MOSUNNY   79  45  29 W12       29.65S
HUNTER AAF     MOSUNNY   79  51  36 W12       29.63S
FORT STEWART   PTSUNNY   79  47  32 W8        29.64S
STATESBORO     SUNNY     79  51  37 NW15      29.67R
SYLVANIA       CLEAR     77  49  36 NW9       29.67S
CLAXTON        FAIR      77  51  39 W10       29.67S

...CSRA...CENTRAL AND FAR SOUTHEAST GEORGIA...

CITY           SKY/WX    TMP DP  RH WIND       PRES   REMARKS
THOMSON        MOSUNNY   74  48  39 NW13      29.72S
AUGUSTA-BUSH   SUNNY     74  43  32 NW12      29.66S
AUGUSTA-DANIEL SUNNY     74  42  31 W9G18     29.68R
SWAINSBORO     FAIR      73  45  35 W6        29.69S
VIDALIA        SUNNY     73  46  38 NW9G17    29.69S
EASTMAN        FAIR      74  44  34 W8        29.73S
HAZLEHURST     FAIR      77  46  33 NW7       29.68S
ALMA           SUNNY     75  47  36 N6        29.68S
WAYCROSS       MOSUNNY   76  50  39 N12       29.67F
JESUP          FAIR      81  50  34 NW7       29.67S
BAXLEY         FAIR      77  45  31 W9        29.67F
BRUNSWICK      PTSUNNY   84  55  37 W6        29.66F
SAINT SIMONS   MOSUNNY   76  64  66 MISG      29.65F

$$

SCZ027-028-034-036>038-045-046-048>050-GAZ119-141-042300-
...LAKE AND SUPPLEMENTAL COASTAL OBSERVATIONS...

STATION/POSITION TIME  TEMP    WIND        PRES    WAVE   SWELL
                       AIR SEA DIR/SP/G            HT/PER HT/PER/DIR
                 (UTC) (F)     (DEG/KT/KT) (MB)    (FT/S) (FT/S/D)
WINYAH BAY       NOT AVBL
LAKE MURRAY      2100   72     280/  8/ 16 1003.4S
ACE BASIN NERRS  NOT AVBL
FORT PULASKI     2100   76 76  290/ 11/ 16 1004.1F
SAPELO ISLAND    2100   79     240/ 12     1004.0F

$$

ANZ835-935-AMZ111-154-330-350-352-354-370-450-454-472-042300-
...C-MAN AND BUOY OBSERVATIONS...

STATION/POSITION TIME  TEMP    WIND        PRES    WAVE   SWELL
                       AIR SEA DIR/SP/G            HT/PER HT/PER/DIR
                 (UTC) (F)     (DEG/KT/KT) (MB)    (FT/S) (FT/S/D)
BUOY 41004       2150   73 75  240/ 19/ 21 1002.3F   4/ 4   2/ 7
BUOY 41008       NOT AVBL
FOLLY BEACH CMAN 2200   76     230/ 11/ 14 1003.2S
CAPERS NEARSHORE 2108   72 72  220/ 17/ 25 1002.5R
FRIPP NEARSHORE  2108   75 71  270/ 10/ 14 1003.1S


STATION/POSITION TIME  TEMP    WIND        PRES    WAVE   SWELL
                       AIR SEA DIR/SP/G            HT/PER HT/PER/DIR
                 (UTC) (F)     (DEG/KT/KT) (MB)    (FT/S) (FT/S/D)
5E ST. MARYS GA  2121      73                N/A     2/ 7
FRYING PAN BUOY  2200   73 73  240/ 16/ 19 1002.0S
BUOY 41025       2150   71 71  210/  4/  6 1001.3F   3/ 7   3/170/ 7
CAPE LOOKOUT NC  2100   72     220/ 10/ 14 1000.9R
BUOY 41002       2150   75 74  210/ 16/ 19 1003.7S   5/ 7   2/ 70/ 8
BUOY 41010       2120   74 78  260/ 23/ 27 1006.4F
ST AUGUSTINE FL  2200   69 71  200/  2/  2 1004.7F


$$




USA.gov is the U.S. government's official web portal to all federal, state and local government web resources and services.